sat.trackr.live / text

‹ back to catalog

STARLINK-34353

NORAD 64278 · 2025-120Y

PAYLOAD ACTIVE UNKNOWN

§ Identity

Operator
Country
US
Launch date
2025-06-04
Launch site
AFWTR
Launch vehicle
Mass (kg)
RCS (m²)

Purposes: comms

External: N2YO · Heavens-Above · Gunter

§ Orbital elements

Epoch: 2026-05-25T02:41:48.761952Z

Period
94.10 min
Inclination
53.1578°
Eccentricity
0.0001279
Mean motion
15.30207501 rev/d
Perigee alt
474.3 km
Apogee alt
476.1 km
Semi-major
6,853.3 km
B*
4.2586e-4
RAAN
121.9358°
Arg perigee
87.3272°
Mean anomaly
272.7875°
Rev number
5,561

§ Raw data

STARLINK-343531 64278U 25120Y   26145.11236993  .00012277  00000+0  42586-3 0  99952 64278  53.1578 121.9358 0001279  87.3272 272.7875 15.30207501 55614

JSON: /api/v1/satellites/64278 · /tle

For live sub-satellite position, see the globe view (requires WebGL).

§ Visibility from observer

Set your observer location to see the next 7 days of passes ≥ 10°. The values pass through the URL so the page stays shareable.

No JS? Fill the form by hand. The geolocation button needs JavaScript.